Weather reports worldwide

Advertisment
Granada/Aeropuerto, Spain (8419): temperature & dewpoint: 15.05.2019 13:00:00 - 21.05.2019 13:00:00 (CEST)Granada/Aeropuerto, Spain (8419): wind speed: 15.05.2019 13:00:00 - 21.05.2019 13:00:00 (CEST)Granada/Aeropuerto, Spain (8419): wind direction: 15.05.2019 13:00:00 - 21.05.2019 13:00:00 (CEST)Granada/Aeropuerto, Spain (8419): reduced air pressure: 15.05.2019 13:00:00 - 21.05.2019 13:00:00 (CEST)Granada/Aeropuerto, Spain (8419): visibility: 15.05.2019 13:00:00 - 21.05.2019 13:00:00 (CEST)
Date & Time tt [°C] td [°C] ff [km/h] ff [kn] dd ppp [hPa] vv [km]
21.05.2019 13:00:00 24,5 3,3 8 4 WNW 1012,4 30
21.05.2019 12:00:00 22,3 4,8 4 2 NNW 1013,3 30
21.05.2019 11:00:00 19,9 5,2 2 1 WSW 1013,9 30
21.05.2019 10:00:00 17,5 5,7 2 1 NW 1014,8 30
21.05.2019 09:00:00 14,1 5,6 0 0 N 1015,5 30
21.05.2019 08:00:00 10,4 5,2 4 2 W 1015,9 30
21.05.2019 07:00:00 7,9 3,2 2 1 SSW 1015,8 30
21.05.2019 06:00:00 9,1 3,7 0 0 N 1015,3 30
21.05.2019 05:00:00 10,3 4,0 5 3 WSW 1014,9 30
21.05.2019 04:00:00 12,2 4,1 4 2 SW 1014,2 30
21.05.2019 03:00:00 14,0 4,0 0 0 N 1014,2 30
21.05.2019 02:00:00 16,1 3,5 15 8 WSW 1013,9 30
21.05.2019 01:00:00 17,4 3,3 16 9 WSW 1013,7 30
21.05.2019 00:00:00 15,8 4,0 2 1 N 1013,7 30
20.05.2019 23:00:00 16,4 3,8 8 4 SSW 1013,0 30
20.05.2019 22:00:00 18,7 3,3 8 4 WSW 1011,8 30
20.05.2019 21:00:00 21,7 3,7 15 8 WNW 1010,4 30
20.05.2019 20:00:00 23,9 4,8 21 11 W 1009,5 30
20.05.2019 19:00:00 25,0 5,9 18 10 WNW 1009,1 30
20.05.2019 18:00:00 25,7 6,2 22 12 WNW 1009,0 30
20.05.2019 17:00:00 26,1 5,7 16 9 W 1009,0 30
20.05.2019 16:00:00 25,3 6,9 18 10 WNW 1009,5 30
20.05.2019 15:00:00 25,8 5,5 13 7 WNW 1009,8 30
20.05.2019 14:00:00 24,4 5,7 11 6 WSW 1010,5 30
20.05.2019 13:00:00 23,5 3,7 11 6 WNW 1011,1 30
20.05.2019 12:00:00 21,6 7,8 4 2 W 1011,8 30
20.05.2019 11:00:00 19,0 9,2 4 2 NW 1012,5 30
20.05.2019 10:00:00 17,4 10,4 0 0 N 1012,9 28
20.05.2019 09:00:00 14,8 9,8 0 0 N 1013,4 26
20.05.2019 08:00:00 11,6 8,8 0 0 N 1014,0 26
20.05.2019 07:00:00 10,1 7,9 5 3 S 1013,7 28
20.05.2019 06:00:00 11,5 8,7 2 1 WSW 1013,1 30
20.05.2019 05:00:00 12,7 9,2 8 4 SW 1013,1 30
20.05.2019 04:00:00 13,9 9,5 9 5 WSW 1012,9 30
20.05.2019 03:00:00 14,0 9,4 11 6 W 1013,0 30
20.05.2019 02:00:00 14,8 8,9 9 5 SW 1013,3 30
20.05.2019 01:00:00 15,6 8,6 8 4 WSW 1013,3 30
20.05.2019 00:00:00 16,0 6,7 4 2 WSW 1013,2 30
19.05.2019 23:00:00 16,4 3,9 5 3 WNW 1012,7 30
19.05.2019 22:00:00 16,7 3,4 5 3 WSW 1011,5 30
19.05.2019 21:00:00 18,9 2,7 8 4 NW 1010,8 30
19.05.2019 20:00:00 20,7 1,6 16 9 NW 1010,1 30
19.05.2019 19:00:00 21,4 1,6 15 8 NNW 1009,7 30
19.05.2019 18:00:00 21,9 1,8 22 12 NNW 1009,6 29
19.05.2019 17:00:00 22,3 1,5 22 12 NNW 1009,9 30
19.05.2019 16:00:00 21,8 1,3 26 14 NNW 1010,0 30
19.05.2019 15:00:00 22,1 3,4 16 9 W 1010,0 30
19.05.2019 14:00:00 20,7 3,4 9 5 W 1010,8 30
19.05.2019 13:00:00 20,2 3,2 15 8 W 1011,1 30
19.05.2019 12:00:00 19,1 3,8 4 2 SSW 1011,7 30
19.05.2019 11:00:00 16,9 2,9 4 2 W 1012,1 30
19.05.2019 10:00:00 15,3 3,7 4 2 NW 1012,8 30
19.05.2019 09:00:00 13,2 4,7 8 4 W 1012,9 30
19.05.2019 08:00:00 9,8 4,8 4 2 W 1013,6 30
19.05.2019 07:00:00 10,7 4,2 8 4 WSW 1013,0 30
19.05.2019 06:00:00 9,7 5,3 8 4 WSW 1013,3 30
19.05.2019 05:00:00 9,9 5,0 4 2 WNW 1013,0 30
19.05.2019 04:00:00 11,5 5,8 8 4 SW 1012,9 30
19.05.2019 03:00:00 10,8 6,0 8 4 SSW 1013,4 30
19.05.2019 02:00:00 11,2 5,3 5 3 WNW 1013,5 30
19.05.2019 01:00:00 12,8 5,5 11 6 W 1013,4 30
19.05.2019 00:00:00 12,1 0,2 11 6 WSW 1013,7 30
18.05.2019 23:00:00 14,0 -0,3 4 2 NW 1013,0 30
18.05.2019 22:00:00 15,4 -1,2 9 5 NW 1012,3 30
18.05.2019 21:00:00 17,5 -2,8 16 9 WNW 1011,3 30
18.05.2019 20:00:00 19,5 -2,8 26 14 WNW 1010,3 30
18.05.2019 19:00:00 20,5 -2,6 28 15 NW 1009,5 30
18.05.2019 18:00:00 20,6 -0,3 24 13 NW 1009,4 30
18.05.2019 17:00:00 21,5 -0,3 22 12 W 1008,8 30
18.05.2019 16:00:00 21,3 1,3 15 8 NW 1009,3 30
18.05.2019 15:00:00 21,3 1,2 16 9 WNW 1009,2 30
18.05.2019 14:00:00 20,2 3,7 18 10 W 1009,6 30
18.05.2019 13:00:00 19,1 0,2 18 10 NW 1010,1 30
18.05.2019 12:00:00 18,1 5,2 18 10 W 1010,4 30
18.05.2019 11:00:00 17,1 4,8 13 7 W 1010,6 30
18.05.2019 10:00:00 14,3 4,8 11 6 W 1011,3 30
18.05.2019 09:00:00 12,9 5,2 15 8 W 1011,9 30
18.05.2019 08:00:00 10,1 5,8 4 2 WSW 1012,5 30
18.05.2019 07:00:00 9,2 5,5 0 0 N 1011,6 25
18.05.2019 06:00:00 9,4 5,5 9 5 WNW 1011,9 25
18.05.2019 05:00:00 10,9 5,6 9 5 WNW 1011,6 30
18.05.2019 04:00:00 10,0 2,8 5 3 W 1012,1 30
18.05.2019 03:00:00 9,3 2,9 5 3 NNW 1012,8 30
18.05.2019 02:00:00 10,9 1,1 4 2 SSW 1013,2 30
18.05.2019 01:00:00 11,3 0,7 0 0 N 1013,4 30
18.05.2019 00:00:00 12,2 0,6 8 4 SSW 1013,4 30
17.05.2019 23:00:00 12,6 0,7 8 4 SSW 1013,1 25
17.05.2019 22:00:00 15,6 0,2 16 9 WNW 1011,8 30
17.05.2019 21:00:00 17,9 0,1 16 9 WNW 1010,5 30
17.05.2019 20:00:00 19,7 0,8 16 9 WNW 1009,8 30
17.05.2019 19:00:00 20,0 1,2 18 10 NW 1009,9 30
17.05.2019 18:00:00 20,8 1,2 11 6 NW 1010,0 24
17.05.2019 17:00:00 19,5 1,0 18 10 NW 1010,5 30
17.05.2019 16:00:00 18,7 1,1 18 10 NNW 1010,8 30
17.05.2019 15:00:00 18,8 0,5 22 12 NNW 1010,8 30
17.05.2019 14:00:00 19,5 -0,4 21 11 NW 1010,6 30
17.05.2019 13:00:00 18,5 1,6 21 11 WNW 1010,9 30
17.05.2019 12:00:00 17,1 1,7 11 6 NW 1011,3 30
17.05.2019 11:00:00 15,5 4,8 8 4 NNW 1011,7 30
17.05.2019 10:00:00 14,2 5,0 8 4 NW 1012,4 30
17.05.2019 09:00:00 12,6 6,5 11 6 W 1012,6 25
17.05.2019 08:00:00 11,2 6,5 4 2 WNW 1012,9 25
17.05.2019 07:00:00 10,1 5,9 9 5 W 1012,3 25
17.05.2019 06:00:00 11,2 6,3 13 7 W 1011,3 30
17.05.2019 05:00:00 13,2 7,2 13 7 WNW 1010,3 30
17.05.2019 04:00:00 15,5 7,3 22 12 W 1009,1 30
17.05.2019 03:00:00 17,2 8,3 24 13 W 1009,0 30
17.05.2019 02:00:00 18,3 7,7 18 10 W 1008,8 26
17.05.2019 01:00:00 19,5 7,9 18 10 W 1008,7 27
17.05.2019 00:00:00 20,5 8,5 24 13 WSW 1009,0 30
16.05.2019 23:00:00 20,4 5,6 13 7 WSW 1008,9 30
16.05.2019 22:00:00 22,1 2,7 18 10 W 1007,8 30
16.05.2019 21:00:00 24,5 0,9 18 10 W 1006,6 30
16.05.2019 20:00:00 27,2 -1,4 28 15 W 1005,9 30
16.05.2019 19:00:00 28,4 0,1 29 16 W 1005,5 24
16.05.2019 18:00:00 30,4 3,8 31 17 W 1005,1 18
16.05.2019 17:00:00 30,8 5,8 24 13 W 1005,3 30
16.05.2019 16:00:00 30,5 7,0 21 11 W 1006,0 30
16.05.2019 15:00:00 30,7 5,4 26 14 W 1006,2 30
16.05.2019 14:00:00 30,9 1,9 24 13 W 1006,6 30
16.05.2019 13:00:00 30,2 5,8 24 13 W 1007,0 30
16.05.2019 12:00:00 27,8 9,5 8 4 NW 1007,8 26
16.05.2019 11:00:00 24,5 8,0 2 1 NNW 1008,9 20
16.05.2019 10:00:00 20,1 9,9 0 0 N 1010,1 22
16.05.2019 09:00:00 16,4 9,5 4 2 NW 1011,1 22
16.05.2019 08:00:00 13,0 7,8 0 0 N 1012,2 20
16.05.2019 07:00:00 10,9 6,6 4 2 SW 1012,5 30
16.05.2019 06:00:00 12,5 7,2 0 0 N 1012,0 30
16.05.2019 05:00:00 13,2 7,0 5 3 SSW 1011,9 26
16.05.2019 04:00:00 13,5 7,3 0 0 N 1011,7 30
16.05.2019 03:00:00 15,2 7,7 0 0 N 1011,9 30
16.05.2019 02:00:00 16,7 7,7 4 2 SSE 1011,8 30
16.05.2019 01:00:00 18,5 7,0 0 0 N 1011,4 30
16.05.2019 00:00:00 20,0 7,0 8 4 SSW 1011,2 30
15.05.2019 23:00:00 21,6 7,0 8 4 SW 1010,4 30
15.05.2019 22:00:00 23,0 7,5 5 3 SSW 1009,6 28
15.05.2019 21:00:00 27,5 7,6 8 4 NW 1008,1 30
15.05.2019 20:00:00 30,8 5,2 11 6 NNW 1007,1 30
15.05.2019 19:00:00 32,2 2,0 16 9 NNW 1007,0 30
15.05.2019 18:00:00 32,8 2,8 16 9 N 1006,9 30
15.05.2019 17:00:00 32,8 3,7 13 7 NNW 1007,1 30
15.05.2019 16:00:00 32,8 0,8 15 8 NNW 1007,8 30
15.05.2019 15:00:00 32,6 4,5 16 9 NW 1008,2 30
15.05.2019 14:00:00 30,6 6,8 9 5 WNW 1009,2 30
15.05.2019 13:00:00 28,5 7,8 4 2 W 1010,4 24

tt = temperature
td = dewpoint
ff = wind speed
dd = wind direction
ppp = reduced air pressure
vv = visibility

Next stations